Flag for Australia Weather past 2 weeks in Melbourne, Victoria, Australia

Now
68 °F

Passing clouds.


Feels Like: 68 °F
Forecast: 55 / 67 °F
Wind: 6 mph from South

Location: Melbourne Airport


UV Index: 3 (Moderate)

Visibility: N/A


Pressure: 30.12 "Hg

Humidity: 46%

Dew point: 46 °F

Location of MelbourneLocation

Historic Weather in Melbourne

°F

Melbourne temperature yesterday

Maximum temperature yesterday: 72 °F (at 1:00 PM)
Minimum temperature yesterday: 48 °F (at 6:00 AM)
Average temperature yesterday: 58 °F

Past Weeks' High & Low Weather Summary

 TemperatureHumidityPressure
High75 °F (Apr 7, 2:00 PM)100% (Apr 3, 1:30 AM)30.24 "Hg (Apr 3, 1:30 AM)
Low46 °F (Apr 14, 4:00 AM)36% (Apr 7, 3:00 PM)29.77 "Hg (Apr 11, 12:30 AM)
Average61 °F80%30.09 "Hg
* Reported Apr 2 11:00 AM — Apr 17 10:00 AM, Melbourne, Weather by CustomWeather, © 2014

Note: Actual official high and low records may vary slightly from our data, if they occured in-between our weather recording intervals... More about our weather records

Advertising

Historic Weather Conditions — Data for Previous 24 hours

 ConditionsComfort  
Time TempWeatherWind HumidityBarometerVisibility
10:00 AM
Apr 17
66 °FSunny.3 mph56%30.12 "Hg10 mi
9:30 AM64 °FSunny.6 mph60%30.15 "Hg10 mi
9:00 AM61 °FSunny.3 mph68%30.15 "Hg10 mi
8:30 AM59 °FSunny.6 mph68%30.15 "Hg10 mi
8:00 AM55 °FSunny.8 mph77%30.12 "Hg10 mi
7:30 AM54 °FSunny.9 mph77%30.12 "Hg10 mi
7:00 AM50 °FSunny.9 mph88%30.12 "Hg10 mi
6:30 AM48 °FSunny.No wind94%30.12 "Hg10 mi
6:00 AM52 °FSunny.6 mph88%30.12 "Hg10 mi
5:30 AM52 °FClear.10 mph88%30.12 "Hg10 mi
5:00 AM52 °FClear.12 mph88%30.09 "Hg10 mi
4:30 AM52 °FClear.12 mph88%30.09 "Hg10 mi
4:00 AM52 °FClear.13 mph88%30.09 "Hg10 mi
3:30 AM52 °FClear.12 mph88%30.09 "Hg10 mi
3:00 AM52 °FClear.12 mph88%30.09 "Hg10 mi
2:30 AM52 °FClear.9 mph94%30.09 "Hg10 mi
2:00 AM54 °FClear.10 mph88%30.09 "Hg10 mi
1:30 AM54 °FClear.12 mph88%30.09 "Hg10 mi
1:00 AM52 °FClear.10 mph94%30.09 "Hg10 mi
12:00 AM54 °FPassing clouds.7 mph94%30.09 "HgN/A
11:00 PM
Apr 16
55 °FClear.8 mph88%30.09 "Hg10 mi
10:30 PM55 °FClear.9 mph94%30.12 "Hg10 mi
10:00 PM57 °FClear.9 mph88%30.12 "Hg10 mi
9:30 PM55 °FClear.6 mph88%30.12 "Hg10 mi
9:00 PM57 °FClear.7 mph88%30.12 "Hg10 mi
8:30 PM57 °FClear.6 mph88%30.12 "Hg10 mi
8:00 PM61 °FClear.3 mph77%30.12 "Hg10 mi
7:30 PM61 °FClear.6 mph83%30.12 "Hg10 mi
7:00 PM61 °FClear.6 mph77%30.09 "Hg10 mi
6:30 PM61 °FClear.6 mph77%30.09 "Hg10 mi
6:00 PM63 °FClear.6 mph73%30.09 "Hg10 mi
5:30 PM64 °FClear.6 mph68%30.09 "Hg10 mi
5:00 PM64 °FClear.9 mph68%30.07 "Hg10 mi
4:30 PM64 °FSunny.9 mph68%30.07 "Hg10 mi
4:00 PM66 °FSunny.13 mph64%30.07 "Hg10 mi
3:00 PM72 °FPassing clouds.7 mph41%30.07 "HgN/A
2:30 PM72 °FSunny.9 mph41%30.07 "Hg10 mi
2:00 PM72 °FPassing clouds.6 mph41%30.07 "HgN/A
1:30 PM70 °FSunny.8 mph40%30.07 "Hg10 mi
1:00 PM72 °FBroken clouds.13 mph38%30.07 "HgN/A
12:30 PM68 °FPartly sunny.6 mph56%30.09 "HgN/A
12:00 PM66 °FPartly sunny.6 mph60%30.09 "HgN/A
11:30 AM66 °FPartly sunny.5 mph60%30.09 "HgN/A
11:00 AM64 °FPartly sunny.6 mph64%30.12 "HgN/A
Weather by CustomWeather, © 2014

See weather overview